Date,TemperatureHighF,TemperatureAvgF,TemperatureLowF,DewpointHighF,DewpointAvgF,DewpointLowF,HumidityHigh,HumidityAvg,HumidityLow,PressureMaxIn,PressureMinIn,WindSpeedMaxMPH,WindSpeedAvgMPH,GustSpeedMaxMPH,PrecipitationSumIn
2013-1-1,37.9,29.0,23.6,34.6,28.1,22.9,98,96,86,30.56,30.41,1,0,1,0.01
2013-1-2,41.9,33.9,28.4,34.5,29.7,26.1,95,85,67,30.41,30.25,3,0,5,0.00
2013-1-3,40.0,32.6,27.0,32.8,29.4,25.4,97,88,73,30.25,30.13,2,0,5,0.14
2013-1-4,39.0,36.1,33.6,38.4,35.5,32.8,98,98,95,30.34,30.17,1,0,3,0.33
2013-1-5,39.5,38.1,36.5,38.7,37.2,35.8,98,96,90,30.23,30.10,3,0,5,0.20
2013-1-6,41.4,39.0,36.6,40.5,38.3,36.1,99,97,95,30.17,30.00,2,0,6,0.58
2013-1-7,47.1,38.9,35.6,46.3,38.4,35.1,100,98,94,30.15,29.82,3,0,5,0.81
2013-1-8,47.2,38.8,35.2,47.2,38.4,34.7,100,98,96,30.17,29.64,5,1,9,2.20
2013-1-9,46.0,40.2,34.4,45.2,38.6,32.9,97,94,84,29.94,29.67,5,1,8,0.09
2013-1-10,37.7,32.5,25.0,34.8,31.4,24.3,98,96,84,30.18,29.94,2,0,4,0.08
2013-1-11,35.3,27.3,22.4,26.2,21.9,18.1,98,81,53,30.37,30.18,1,0,2,0.00
2013-1-12,34.0,26.1,21.5,23.1,20.6,17.8,89,80,62,30.49,30.37,2,0,4,0.00
2013-1-13,31.7,26.0,20.1,25.2,21.9,17.9,93,84,71,30.53,30.48,1,0,4,0.00
2013-1-14,31.4,30.0,28.2,30.4,28.1,23.5,96,93,82,30.62,30.50,0,0,1,0.00
2013-1-15,36.0,31.8,28.9,32.9,30.3,27.7,97,94,86,30.75,30.62,0,0,0,0.02
2013-1-16,39.0,32.3,27.4,33.0,29.4,26.4,96,89,78,30.73,30.57,1,0,3,0.01
2013-1-17,42.6,32.9,26.3,36.1,30.7,25.4,98,92,77,30.58,30.33,1,0,2,0.00
2013-1-18,36.1,31.6,28.7,35.7,31.1,28.1,99,98,95,30.39,30.30,1,0,2,0.01
2013-1-19,34.8,30.2,26.2,34.3,29.8,25.4,99,98,97,30.44,30.38,1,0,2,0.00
2013-1-20,41.2,31.8,26.7,37.6,31.0,26.2,99,97,87,30.44,30.32,2,0,3,0.01
2013-1-21,33.9,27.3,23.5,33.4,26.7,22.8,98,98,97,30.32,30.17,2,0,3,0.01
2013-1-22,36.7,29.7,23.1,36.3,29.2,22.4,99,98,96,30.20,29.95,1,0,2,0.01
2013-1-23,40.9,37.3,32.3,40.5,36.6,31.3,99,97,91,30.11,29.84,3,1,7,0.69
2013-1-24,42.9,38.2,34.5,40.7,37.4,34.2,99,97,90,30.22,30.04,2,0,3,0.31
2013-1-25,46.5,40.1,35.1,43.6,39.1,34.8,100,96,86,30.08,29.93,1,0,3,0.15
2013-1-26,39.1,36.7,34.7,38.3,36.0,34.2,99,97,95,30.04,29.89,2,0,7,0.41
2013-1-27,39.0,37.2,35.8,38.7,36.7,35.5,99,98,97,30.04,29.97,2,0,7,0.14
2013-1-28,38.5,37.1,36.0,37.7,36.5,34.8,99,98,94,30.06,29.99,2,0,4,0.08
2013-1-29,41.6,39.5,37.2,41.3,38.8,36.7,99,97,92,30.32,30.07,1,0,2,0.21
2013-1-30,42.4,41.7,41.0,42.1,41.4,40.8,100,99,99,30.39,30.32,3,1,7,0.12
2013-1-31,45.0,43.4,40.9,44.8,43.2,40.9,100,99,97,30.39,30.30,3,1,9,0.21
2013-2-1,47.6,42.6,35.6,44.9,42.0,35.3,100,98,89,30.46,30.35,1,0,2,0.01
2013-2-2,45.3,37.3,32.8,42.3,36.5,32.6,100,97,86,30.45,30.27,2,0,4,0.01
2013-2-3,41.9,39.4,37.2,41.9,39.3,36.9,100,99,99,30.33,30.20,1,0,3,0.14
2013-2-4,48.1,42.6,40.8,43.2,41.3,40.0,100,95,82,30.20,29.86,3,1,10,0.03
2013-2-5,46.7,43.4,40.3,42.4,40.9,38.7,98,91,81,29.90,29.78,4,1,9,0.14
2013-2-6,46.4,42.5,40.3,41.3,40.2,39.0,98,92,77,30.03,29.90,3,1,6,0.15
2013-2-7,46.1,39.6,32.6,40.4,36.7,31.8,98,90,68,30.22,29.80,3,1,6,0.12
2013-2-8,42.2,36.4,31.5,37.5,34.6,31.0,99,94,79,30.33,30.22,1,0,2,0.01
2013-2-9,42.9,38.2,33.8,38.0,36.0,32.5,97,92,80,30.38,30.29,1,0,3,0.00
2013-2-10,45.8,36.7,30.1,37.0,33.1,29.1,96,87,68,30.41,30.35,3,0,5,0.01
2013-2-11,41.3,38.7,36.4,40.0,38.0,35.4,99,97,94,30.37,30.34,2,0,6,0.06
2013-2-12,45.3,42.8,40.2,43.7,41.6,39.7,99,96,92,30.40,30.24,2,1,12,0.05
2013-2-13,48.3,42.8,38.5,42.3,39.2,36.9,97,88,75,30.48,30.27,3,0,6,0.00
2013-2-14,42.8,40.8,38.9,42.0,39.9,37.9,98,97,92,30.61,30.50,0,0,1,0.14
2013-2-15,52.8,42.6,35.6,43.8,39.8,35.3,100,90,68,30.61,30.19,1,0,3,0.01
2013-2-16,50.0,43.1,39.6,44.7,40.1,37.7,99,90,67,30.19,30.09,5,1,12,0.14
2013-2-17,43.1,39.0,34.6,38.0,34.8,32.3,93,85,72,30.25,30.14,2,0,6,0.00
2013-2-18,41.9,37.5,34.8,38.1,35.0,33.3,96,91,81,30.14,29.81,2,0,4,0.01
2013-2-19,48.0,38.7,33.3,39.1,34.3,30.9,98,85,61,30.02,29.80,3,1,6,0.00
2013-2-20,38.5,34.3,28.5,37.2,32.9,28.0,98,95,85,30.06,30.02,2,0,7,0.12
2013-2-21,40.5,37.8,33.8,39.2,36.9,33.3,99,96,92,30.05,29.99,3,1,7,0.40
2013-2-22,44.4,39.2,34.4,41.4,37.3,32.6,98,93,77,30.02,29.62,5,2,10,0.85
2013-2-23,46.4,39.6,34.1,39.7,34.6,30.2,96,83,56,30.35,29.84,6,1,14,0.01
2013-2-24,44.0,40.4,36.5,39.3,37.4,35.7,97,89,78,30.37,29.89,4,1,8,0.20
2013-2-25,42.8,40.5,37.4,40.6,37.5,32.8,95,89,79,30.28,29.82,7,2,11,0.36
2013-2-26,44.4,38.4,34.5,37.4,35.1,33.2,97,88,69,30.35,30.18,2,0,7,0.16
2013-2-27,45.0,39.2,34.4,40.0,37.1,33.8,98,92,78,30.34,30.20,2,0,7,0.07
2013-2-28,40.9,38.2,35.6,40.6,37.1,35.0,99,96,88,30.31,30.23,2,0,4,1.27
2013-3-1,51.3,48.5,40.6,49.4,47.7,40.3,100,97,92,30.30,30.24,5,2,10,1.76
2013-3-2,50.6,45.5,37.6,48.8,44.2,35.2,98,95,85,30.26,30.00,5,2,12,0.61
2013-3-3,48.1,39.8,33.4,37.7,34.7,31.3,95,83,58,30.34,30.16,4,1,7,0.00
2013-3-4,52.2,40.2,29.0,36.3,30.3,25.5,99,71,37,30.34,30.01,2,0,5,0.01
2013-3-5,47.5,41.9,38.2,37.2,32.4,27.4,94,70,56,30.02,29.80,3,0,9,0.01
2013-3-6,43.5,39.3,36.4,40.1,37.5,34.9,98,94,83,29.91,29.65,2,0,4,0.16
2013-3-7,45.0,40.0,37.1,42.5,38.9,36.6,98,96,87,30.14,29.91,0,0,2,0.18
2013-3-8,50.2,40.4,34.1,41.3,37.5,33.6,99,90,68,30.27,30.12,3,0,5,0.01
2013-3-9,52.5,41.9,32.7,42.1,37.1,31.9,99,84,60,30.52,30.27,3,0,5,0.01
2013-3-10,44.0,40.7,38.0,41.3,38.7,36.2,97,92,85,30.52,30.44,2,0,3,0.01
2013-3-11,49.5,42.3,36.9,42.8,38.6,36.2,98,88,64,30.47,30.16,1,0,3,0.28
2013-3-12,48.8,44.5,37.7,48.3,43.9,36.9,99,98,96,30.16,29.98,5,1,12,2.07
2013-3-13,50.9,48.6,47.6,49.4,47.9,47.1,99,97,91,30.18,30.06,3,1,7,0.97
2013-3-14,52.3,47.7,45.8,49.9,47.1,45.3,100,98,88,30.14,30.02,3,0,6,0.58
2013-3-15,55.9,48.4,44.4,50.8,46.8,43.9,99,94,79,30.22,30.13,3,0,6,0.27
2013-3-16,47.0,43.0,36.4,46.0,40.9,33.9,99,93,72,30.13,29.83,4,1,9,0.53
2013-3-17,48.0,41.0,36.4,36.6,33.2,28.3,95,75,47,30.16,29.93,5,2,10,0.00
2013-3-18,47.2,40.3,35.3,37.2,31.8,24.9,97,74,44,30.27,30.05,7,2,13,0.28
2013-3-19,47.6,39.4,33.3,39.5,33.3,29.3,96,80,55,30.27,29.59,3,1,11,0.28
2013-3-20,50.5,42.2,36.6,47.8,38.8,31.6,99,88,68,29.95,29.33,7,3,17,0.69
2013-3-21,46.6,38.7,32.7,35.6,31.8,26.1,96,78,46,30.20,29.95,4,1,9,0.01
2013-3-22,44.3,35.7,29.5,36.8,32.1,28.2,96,87,57,30.41,30.19,2,0,5,0.17
2013-3-23,48.3,38.0,29.8,33.1,29.3,24.9,96,73,44,30.43,30.34,3,1,7,0.00
2013-3-24,54.9,42.1,32.0,32.4,29.1,25.7,87,63,34,30.35,30.17,2,1,4,0.00
2013-3-25,60.2,46.8,37.9,37.6,32.4,28.6,79,59,32,30.18,29.98,3,0,7,0.00
2013-3-26,59.6,49.1,37.9,41.5,36.7,33.5,85,64,46,30.05,30.00,3,1,8,0.00
2013-3-27,59.0,48.3,37.6,44.6,39.3,35.2,93,72,54,30.03,29.97,3,0,5,0.00
2013-3-28,60.8,50.6,41.4,45.7,41.5,37.4,91,72,48,30.17,30.03,3,0,6,0.00
2013-3-29,61.5,51.1,43.1,48.6,44.1,40.3,94,78,55,30.29,30.17,0,0,0,0.00
2013-3-30,64.6,51.7,40.6,48.2,43.4,38.7,96,75,50,30.31,30.12,0,0,0,0.00
2013-3-31,67.7,53.2,41.4,47.9,42.4,37.0,90,69,43,30.12,29.94,0,0,0,0.00
2013-4-1,60.2,51.2,41.7,50.1,45.1,39.1,93,80,66,30.15,29.97,0,0,0,0.00
2013-4-2,54.2,49.1,45.6,45.6,44.1,42.0,95,83,66,30.22,30.15,0,0,0,0.00
2013-4-3,60.2,50.9,44.6,47.5,44.9,41.6,96,81,60,30.22,30.00,0,0,0,0.00
2013-4-4,54.1,50.4,46.4,50.8,46.3,42.1,97,86,67,30.00,29.61,4,0,8,0.64
2013-4-5,54.9,50.4,46.2,50.9,47.7,43.9,97,91,82,29.85,29.67,4,1,10,0.50
2013-4-6,54.5,47.3,40.7,46.2,41.5,36.5,95,81,51,29.90,29.67,5,2,12,0.21
2013-4-7,46.8,42.3,39.9,43.8,40.7,38.9,98,94,82,29.89,29.58,3,0,4,0.54
2013-4-8,55.1,45.9,41.1,44.7,42.3,40.6,98,88,61,30.28,29.89,3,0,6,0.00
2013-4-9,50.8,46.4,44.2,45.5,43.3,41.7,97,89,73,30.36,30.17,2,0,5,0.04
2013-4-10,55.2,47.8,43.6,48.2,44.7,41.7,98,90,64,30.21,29.88,7,2,13,0.97
2013-4-11,53.4,46.9,39.3,42.1,36.8,31.9,94,70,45,30.31,30.20,4,1,10,0.01
2013-4-12,42.0,39.6,37.3,39.6,37.2,34.6,96,91,85,30.20,29.64,5,0,13,0.64
2013-4-13,49.6,40.1,33.8,40.8,36.4,31.3,95,87,67,30.00,29.69,7,1,11,0.10
2013-4-14,52.5,42.7,37.0,40.9,38.0,36.0,98,84,58,30.03,29.94,4,1,10,0.03
2013-4-15,54.1,45.4,37.5,44.3,38.9,34.6,97,79,50,30.21,29.96,4,1,6,0.22
2013-4-16,58.9,46.9,35.2,40.5,33.7,27.2,96,63,32,30.42,30.22,4,0,7,0.03
2013-4-17,57.6,47.4,36.7,40.6,36.4,31.8,86,67,43,30.46,30.41,4,1,7,0.00
2013-4-18,48.0,44.5,41.7,44.9,42.7,40.4,97,94,83,30.46,30.20,3,0,8,0.56
2013-4-19,54.8,48.3,45.2,50.1,46.8,44.6,98,95,79,30.20,30.08,4,1,6,0.51
2013-4-20,55.2,48.7,45.1,47.3,45.0,42.7,97,87,68,30.25,30.15,3,1,8,0.08
2013-4-21,55.3,45.4,38.6,43.3,39.3,31.0,95,81,41,30.42,30.23,3,0,7,0.14
2013-4-22,60.2,47.6,35.4,36.2,30.8,24.2,94,57,27,30.58,30.43,3,1,7,0.00
2013-4-23,62.9,49.2,38.8,45.7,36.4,30.1,86,63,35,30.45,30.29,3,1,7,0.00
2013-4-24,65.2,55.8,43.2,42.7,36.7,30.3,80,50,31,30.35,30.08,4,1,6,0.00
2013-4-25,66.8,54.1,42.8,47.0,41.2,31.4,80,63,45,30.15,30.06,3,1,6,0.00
2013-4-26,60.0,52.6,43.7,49.2,43.7,38.1,91,73,48,30.26,30.15,3,0,8,0.00
2013-4-27,52.4,49.0,45.0,48.2,45.1,41.0,96,87,65,30.21,30.13,3,1,7,0.31
2013-4-28,53.6,46.6,39.0,44.5,40.7,36.1,96,81,54,30.21,29.91,5,1,10,0.17
2013-4-29,53.5,45.9,40.3,42.8,35.5,28.0,96,69,38,30.14,29.90,7,3,11,0.01
2013-4-30,53.8,45.0,35.5,38.1,33.8,30.1,86,66,43,30.47,30.13,4,1,7,0.00
2013-5-1,60.9,48.6,35.2,40.2,33.8,22.7,90,60,23,30.63,30.47,2,0,5,0.00
2013-5-2,64.0,52.2,40.5,45.6,39.9,33.6,87,65,39,30.59,30.42,2,0,4,0.00
2013-5-3,71.2,55.9,40.3,50.1,44.6,39.0,97,69,36,30.45,30.27,3,1,6,0.00
2013-5-4,79.4,62.7,46.6,53.9,45.9,39.0,89,58,25,30.30,30.04,3,1,7,0.00
2013-5-5,83.3,67.9,52.3,57.8,47.3,40.0,71,50,30,30.04,29.79,3,0,5,0.00
2013-5-6,83.1,67.9,51.5,54.1,48.4,45.1,82,53,32,29.88,29.77,2,0,6,0.00
2013-5-7,71.1,60.0,48.3,54.5,50.6,46.5,94,72,52,29.99,29.81,3,1,6,0.00
2013-5-8,66.8,55.8,48.1,55.6,50.8,46.6,95,84,64,30.16,29.99,3,1,7,0.00
2013-5-9,72.1,58.6,47.0,58.6,51.1,45.6,97,78,53,30.24,30.14,2,0,5,0.00
2013-5-10,76.1,64.3,48.9,58.9,53.2,47.0,94,69,49,30.23,30.14,2,0,4,0.00
2013-5-11,77.5,63.4,51.9,59.0,53.7,49.6,95,73,49,30.19,30.00,2,0,5,0.09
2013-5-12,63.8,57.5,54.2,59.7,55.9,53.4,98,94,79,30.09,30.01,3,1,11,0.97
2013-5-13,62.3,53.1,46.0,56.1,50.8,43.1,98,92,75,30.18,29.91,5,1,7,0.73
2013-5-14,62.6,52.1,44.7,46.3,43.2,37.6,92,74,41,30.25,30.16,3,1,8,0.00
2013-5-15,67.3,54.8,47.3,49.1,46.1,42.7,94,75,44,30.16,30.02,3,0,4,0.02
2013-5-16,67.1,58.2,49.8,54.9,51.2,48.0,96,79,61,30.05,29.90,3,1,6,0.05
2013-5-17,57.8,53.1,49.0,52.5,50.1,47.9,97,90,80,30.07,29.94,3,0,5,0.02
2013-5-18,62.7,53.3,49.6,51.2,48.9,46.3,97,86,57,30.29,30.06,2,0,4,0.06
2013-5-19,63.5,54.5,48.4,51.8,49.1,45.7,95,83,58,30.42,30.29,1,0,4,0.00
2013-5-20,66.4,55.2,44.7,52.5,48.2,43.6,97,78,55,30.38,29.92,3,0,7,0.00
2013-5-21,51.4,47.9,46.3,47.6,46.2,44.9,97,94,82,29.93,29.81,1,0,2,0.43
2013-5-22,58.5,50.2,44.4,48.2,45.7,43.6,98,86,65,29.98,29.87,3,0,9,0.48
2013-5-23,59.9,49.5,39.0,48.4,44.6,38.2,98,84,57,30.04,29.96,3,1,5,0.02
2013-5-24,63.3,51.6,41.8,49.4,44.3,41.0,98,79,48,30.06,30.00,3,1,6,0.01
2013-5-25,63.1,52.9,44.7,51.1,46.7,42.4,94,80,57,30.06,30.01,3,1,6,0.00
2013-5-26,56.7,51.6,48.1,53.5,49.6,47.1,97,93,83,30.03,29.98,1,0,4,0.41
2013-5-27,62.2,53.9,48.3,55.8,51.8,47.8,98,93,70,29.97,29.74,2,0,4,0.36
2013-5-28,58.2,53.7,50.3,53.5,51.2,49.2,98,91,77,29.89,29.77,2,0,6,0.13
2013-5-29,55.3,51.3,48.8,52.3,49.5,47.3,98,94,84,29.96,29.70,2,0,5,0.15
2013-5-30,59.1,51.4,46.5,51.2,47.7,45.2,98,88,66,30.26,29.97,3,0,7,0.19
2013-5-31,66.1,54.3,46.6,53.5,48.3,44.2,98,82,50,30.38,30.26,2,0,5,0.09
2013-6-1,69.0,56.6,47.8,53.0,48.6,44.9,96,76,50,30.28,30.10,2,0,4,0.00
2013-6-2,68.5,57.2,48.1,54.6,49.8,46.1,98,78,46,30.11,30.05,3,0,5,0.00
2013-6-3,70.7,58.7,47.5,55.4,50.4,45.7,95,76,53,30.14,30.08,3,1,6,0.00
2013-6-4,78.0,63.1,48.8,58.9,52.3,47.4,98,71,37,30.17,30.04,2,0,5,0.00
2013-6-5,73.0,62.2,53.0,58.9,54.0,49.5,93,76,52,30.11,30.04,3,1,4,0.00
2013-6-6,76.7,63.9,51.7,61.3,53.0,45.7,97,70,41,30.08,30.00,3,0,6,0.00
2013-6-7,65.9,57.0,51.0,54.7,48.9,41.9,93,75,59,30.15,30.00,3,1,9,0.13
2013-6-8,66.6,55.6,46.4,51.1,48.0,44.4,95,77,56,30.19,30.13,3,1,7,0.00
2013-6-9,65.4,55.8,47.2,54.1,49.0,43.5,95,79,51,30.13,30.05,3,1,8,0.00
2013-6-10,68.2,56.3,42.7,53.5,47.1,41.4,97,74,45,30.06,29.89,3,1,6,0.00
2013-6-11,64.0,55.4,50.6,48.5,46.6,44.4,87,73,52,30.11,29.93,3,1,6,0.00
2013-6-12,59.8,53.6,48.4,54.9,50.2,45.4,97,88,74,30.17,30.11,2,0,3,0.47
2013-6-13,67.8,56.3,46.5,53.3,49.4,45.7,98,79,51,30.20,30.16,3,1,5,0.01
2013-6-14,64.9,54.3,49.4,54.6,50.7,48.3,96,88,68,30.25,30.11,1,0,3,0.14
2013-6-15,49.4,47.6,45.7,48.3,46.8,44.9,97,97,96,30.11,30.07,0,0,0,0.00
2013-6-16,74.0,63.0,53.3,56.7,54.1,51.0,94,74,49,30.09,30.00,2,1,0,0.00
2013-6-17,74.9,63.4,53.7,55.2,53.2,50.8,90,71,48,30.09,29.92,3,1,5,0.02
2013-6-18,71.6,60.5,53.5,55.5,51.8,46.1,97,75,46,29.98,29.91,4,0,7,0.02
2013-6-19,64.7,56.8,51.2,57.7,52.8,49.5,95,87,66,29.99,29.90,1,0,4,0.41
2013-6-20,54.1,52.3,51.1,53.2,51.4,50.3,98,97,94,30.11,29.91,2,1,5,1.43
2013-6-21,64.1,56.1,50.5,56.4,52.7,50.0,98,89,72,30.20,30.11,2,0,3,0.00
2013-6-22,74.5,62.0,51.7,57.6,53.9,50.0,95,77,51,30.15,29.90,2,0,4,0.00
2013-6-23,69.1,62.1,52.6,60.9,56.7,51.2,96,83,68,29.90,29.63,1,0,3,0.02
2013-6-24,64.5,59.2,55.4,59.8,57.2,54.4,98,93,74,29.72,29.57,3,0,5,0.65
2013-6-25,71.2,60.6,55.0,59.2,55.9,53.8,98,86,58,29.85,29.69,3,0,5,0.61
2013-6-26,70.0,61.1,54.5,60.0,56.7,53.9,98,86,66,30.10,29.85,4,0,8,0.07
2013-6-27,68.2,62.1,57.6,63.2,59.1,55.7,97,90,80,30.25,30.07,1,0,4,0.09
2013-6-28,78.3,67.7,57.5,67.5,61.9,56.7,98,83,62,30.25,30.08,1,0,5,0.00
2013-6-29,82.9,71.4,60.6,68.4,63.6,59.7,97,78,50,30.12,30.01,2,0,6,0.00
2013-6-30,95.5,76.0,61.1,72.1,65.0,59.4,97,72,45,30.04,29.86,2,0,6,0.00
2013-7-1,85.5,73.9,62.5,68.8,63.5,56.1,96,72,47,30.01,29.92,3,0,6,0.00
2013-7-2,80.7,68.4,58.1,64.7,57.9,52.0,87,70,50,30.10,30.00,3,1,7,0.00
2013-7-3,77.6,64.2,53.0,58.7,52.5,47.4,92,68,38,30.17,30.05,2,1,7,0.00
2013-7-4,72.1,60.3,50.2,56.4,52.1,47.9,97,76,51,30.12,30.04,3,1,6,0.00
2013-7-5,72.7,61.9,51.6,59.4,53.7,49.5,96,76,52,30.05,29.97,3,1,9,0.00
2013-7-6,78.1,64.2,53.1,60.6,55.7,50.8,95,76,51,30.00,29.88,3,1,6,0.00
2013-7-7,75.0,64.5,55.0,61.8,56.6,51.8,91,77,55,29.95,29.90,2,1,6,0.00
2013-7-8,76.6,63.2,54.1,61.4,56.7,52.7,96,81,55,30.11,29.96,3,1,5,0.00
2013-7-9,84.3,69.1,54.2,64.2,58.2,52.6,97,71,42,30.13,29.99,2,0,4,0.00
2013-7-10,59.4,56.6,54.7,52.5,49.5,44.8,89,77,65,30.02,29.95,1,0,6,0.00
2013-7-11,68.6,58.2,49.9,51.4,48.4,45.4,88,71,46,30.08,29.96,3,1,10,0.00
2013-7-12,71.2,58.8,47.5,55.0,48.9,45.1,95,72,46,30.11,30.03,3,1,7,0.00
2013-7-13,75.2,61.0,47.2,55.9,50.4,44.7,93,70,46,30.23,30.11,3,0,6,0.00
2013-7-14,79.0,64.1,51.7,57.7,52.2,47.8,92,68,35,30.16,30.03,2,1,7,0.00
2013-7-15,82.2,67.4,51.5,55.6,50.9,47.5,94,60,32,30.10,29.94,2,0,5,0.00
2013-7-16,92.0,74.8,61.0,58.4,51.3,44.5,72,47,22,29.95,29.84,2,0,4,0.00
2013-7-17,73.4,66.4,56.7,60.1,57.6,53.5,89,74,58,30.20,29.86,4,1,8,0.01
2013-7-18,77.2,65.5,55.6,60.5,56.7,53.1,92,75,54,30.25,30.14,2,0,6,0.00
2013-7-19,78.6,63.3,54.0,63.7,57.3,52.9,97,82,56,30.18,30.10,3,1,5,0.00
2013-7-20,75.7,65.1,52.9,61.4,56.8,51.6,96,76,55,30.08,29.97,2,1,3,0.00
2013-7-21,76.2,63.0,51.4,60.8,55.6,50.0,96,78,56,29.99,29.92,3,1,8,0.00
2013-7-22,77.2,63.2,52.9,61.7,56.2,51.6,97,80,50,30.07,29.95,3,1,6,0.00
2013-7-23,83.2,67.8,53.7,62.4,57.0,51.7,98,72,43,30.09,29.99,2,0,5,0.00
2013-7-24,83.9,67.5,52.9,62.5,55.7,50.1,92,68,41,30.08,30.00,3,0,6,0.00
2013-7-25,82.0,65.9,51.7,62.0,55.5,49.8,95,72,42,30.11,30.03,3,1,6,0.00
2013-7-26,77.5,65.3,53.5,61.3,55.2,51.0,93,72,47,30.16,30.09,4,1,6,0.00
2013-7-27,73.2,59.2,52.3,58.3,54.1,50.6,94,84,54,30.16,30.10,2,0,6,0.00
2013-7-28,73.0,63.2,53.6,58.9,54.7,50.0,92,75,55,30.02,29.95,3,1,1,0.00
2013-7-29,76.2,63.6,52.8,59.7,55.4,51.4,96,76,51,30.03,29.95,2,1,6,0.00
2013-7-30,76.2,64.4,54.1,60.4,56.3,52.1,94,76,55,30.14,30.02,3,1,6,0.00
2013-7-31,74.8,63.8,54.2,61.7,57.2,52.8,95,80,60,30.13,30.01,3,0,4,0.00
2013-8-1,67.9,60.7,53.6,59.3,56.5,52.3,97,86,73,30.07,30.01,4,1,8,0.02
2013-8-2,62.3,58.0,55.6,57.9,55.5,53.9,96,91,84,30.16,30.05,2,0,6,0.25
2013-8-3,72.5,63.3,56.8,60.9,57.8,55.0,97,83,64,30.17,30.08,2,0,4,0.00
2013-8-4,79.1,65.8,55.6,64.8,59.1,54.2,97,81,56,30.09,29.97,3,0,5,0.00
2013-8-5,81.9,67.8,56.1,64.6,58.6,55.1,98,75,45,30.03,29.94,3,0,5,0.00
2013-8-6,82.7,66.8,52.0,62.9,55.4,50.6,96,71,37,30.02,29.94,2,1,4,0.00
2013-8-7,82.7,67.6,53.6,61.0,55.8,51.8,95,69,41,30.02,29.95,3,1,8,0.00
2013-8-8,80.2,66.7,55.6,61.5,57.6,53.6,97,75,48,30.04,29.94,3,1,8,0.00
2013-8-9,83.3,67.7,53.2,63.7,57.5,51.5,97,73,49,29.98,29.83,2,0,0,0.00
2013-8-10,77.7,64.8,59.1,61.3,57.6,55.0,87,78,55,30.00,29.87,3,0,5,0.00
2013-8-11,73.3,63.2,56.2,60.2,56.0,53.5,95,78,57,30.08,30.00,3,1,7,0.07
2013-8-12,76.2,64.1,55.4,60.6,56.2,53.1,94,77,54,30.08,30.01,3,1,8,0.00
2013-8-13,77.6,65.4,55.8,60.5,56.0,53.5,93,74,50,30.11,29.95,2,1,6,0.00
2013-8-14,59.1,57.8,56.4,54.3,53.4,52.6,90,85,83,29.95,29.93,0,0,0,0.00
2013-8-15,67.7,64.0,61.7,64.3,62.6,61.0,98,95,89,30.00,29.92,0,0,0,0.14
2013-8-16,79.8,68.2,58.7,64.5,61.4,57.4,99,81,48,30.02,29.96,2,0,4,0.00
2013-8-17,74.8,65.7,59.2,61.9,58.8,56.6,92,79,60,30.07,29.98,3,0,7,0.00
2013-8-18,71.3,63.3,56.4,59.4,56.8,52.6,91,80,64,30.13,30.06,2,0,5,0.00
2013-8-19,72.1,61.2,53.8,58.5,54.6,49.9,93,80,61,30.13,30.06,2,0,4,0.00
2013-8-20,74.5,60.5,51.9,58.4,52.7,48.6,97,78,48,30.19,30.10,3,1,6,0.00
2013-8-21,81.3,65.3,50.9,59.8,53.4,47.8,91,68,40,30.12,29.96,3,0,6,0.00
2013-8-22,83.2,69.0,54.4,60.3,55.9,52.3,94,66,41,29.97,29.79,3,0,5,0.00
2013-8-23,73.0,63.9,57.2,58.3,55.7,52.8,88,75,55,29.88,29.80,4,1,12,0.00
2013-8-24,69.6,61.2,57.5,58.3,57.2,55.6,97,87,61,29.91,29.88,2,0,5,0.02
2013-8-25,62.4,60.1,53.3,56.2,54.0,52.2,96,80,74,29.95,29.87,0,0,1,0.00
2013-8-26,73.1,64.5,57.9,58.0,54.9,51.4,86,72,56,29.93,29.84,4,0,7,0.00
2013-8-27,76.7,66.1,57.2,60.6,57.8,54.8,94,76,55,29.95,29.80,3,0,6,0.03
2013-8-28,74.1,63.9,58.1,65.0,60.8,56.7,98,90,68,29.91,29.83,1,0,4,0.13
2013-8-29,71.0,65.0,62.2,65.7,63.0,60.7,98,94,80,29.95,29.87,3,0,6,0.28
2013-8-30,74.8,63.8,56.2,62.2,58.3,54.7,98,83,60,30.17,29.95,4,0,5,0.18
2013-8-31,83.8,65.3,52.6,62.5,56.4,51.7,98,76,45,30.11,29.85,1,0,4,0.00
2013-9-1,78.1,65.9,55.7,61.8,57.6,54.8,98,77,52,29.89,29.80,2,0,7,0.00
2013-9-2,76.7,66.4,58.2,63.1,59.1,55.4,96,79,56,29.94,29.85,3,0,4,0.01
2013-9-3,67.7,61.3,56.8,63.5,58.8,55.1,98,92,81,30.05,29.94,1,0,3,0.24
2013-9-4,72.5,62.3,54.6,64.7,59.2,54.0,99,90,68,30.07,30.01,2,0,5,0.01
2013-9-5,65.1,60.6,55.0,62.7,59.5,54.4,98,97,91,30.07,29.92,1,0,3,0.10
2013-9-6,64.6,60.8,57.4,62.5,59.8,56.8,99,97,91,30.10,29.92,2,0,7,0.17
2013-9-7,70.9,62.9,60.4,63.0,60.7,59.8,99,93,74,30.11,30.07,2,0,3,0.04
2013-9-8,64.0,61.3,59.5,60.5,58.8,57.8,95,91,88,30.06,30.05,0,0,5,0.00
2013-9-9,75.7,63.2,52.2,63.2,58.4,51.6,99,86,62,30.08,30.00,2,0,5,0.01
2013-9-10,81.7,67.0,55.0,66.0,60.2,54.4,99,81,55,30.03,29.92,2,0,4,0.00
2013-9-11,91.5,73.0,60.0,63.9,59.2,54.9,95,67,35,29.98,29.89,2,0,3,0.00
2013-9-12,83.5,69.9,59.2,63.8,59.6,56.5,93,72,45,29.99,29.89,2,0,5,0.00
2013-9-13,72.0,61.5,56.2,62.8,58.1,55.3,98,89,70,29.97,29.86,2,1,7,0.00
2013-9-14,73.5,61.7,55.6,63.6,58.9,54.9,98,91,70,29.91,29.76,2,0,4,0.00
2013-9-15,66.5,58.7,55.8,61.6,57.5,55.1,99,96,83,29.81,29.71,5,0,6,0.24
2013-9-16,64.0,58.9,55.6,59.9,57.1,51.5,98,94,83,29.92,29.78,2,1,6,0.19
2013-9-17,65.0,56.4,50.0,57.1,52.7,48.6,96,88,64,29.93,29.85,3,0,5,0.01
2013-9-18,66.7,56.6,49.5,54.3,51.1,48.2,98,83,55,30.10,29.93,3,0,6,0.00
2013-9-19,76.5,61.3,52.0,54.9,51.0,45.8,93,71,36,30.09,29.77,2,0,5,0.00
2013-9-20,74.4,60.8,51.8,53.6,50.5,46.6,93,71,38,29.77,29.59,2,0,4,0.02
2013-9-21,66.5,58.7,53.8,55.9,53.3,49.2,98,84,55,29.73,29.65,3,1,8,0.02
2013-9-22,58.2,54.7,52.0,53.9,52.6,50.3,97,93,84,29.69,29.53,5,1,11,0.57
2013-9-23,60.0,52.9,46.7,52.8,49.8,45.0,97,89,69,29.97,29.69,4,1,7,0.17
2013-9-24,58.9,50.2,45.5,50.3,47.0,44.2,97,89,68,29.97,29.87,2,0,4,0.13
2013-9-25,63.6,51.7,44.5,50.5,46.9,44.0,99,85,55,30.04,29.89,3,0,6,0.00
2013-9-26,63.0,51.1,40.8,51.3,45.8,40.0,98,83,55,30.14,30.04,3,0,7,0.01
2013-9-27,50.6,49.4,48.1,49.8,48.1,45.8,98,95,88,30.12,29.84,2,0,3,0.68
2013-9-28,56.4,50.5,48.2,55.8,49.5,46.3,99,96,85,29.84,29.29,7,1,7,1.56
2013-9-29,52.4,50.6,48.4,51.0,48.9,45.1,98,94,82,29.51,29.13,6,2,11,0.91
2013-9-30,53.0,49.0,45.4,50.3,46.2,43.1,96,90,80,29.89,29.31,5,2,12,0.15
2013-10-1,54.9,48.0,44.0,48.0,45.4,43.2,98,91,72,30.12,29.89,3,0,7,0.56
2013-10-2,50.0,45.7,42.7,48.6,44.9,42.2,98,97,93,30.22,30.10,2,0,3,1.09
2013-10-3,56.9,46.1,38.3,49.2,43.7,37.8,99,92,74,30.49,30.22,2,0,5,0.01
2013-10-4,59.1,49.7,39.0,50.3,45.8,38.5,99,87,66,30.51,30.38,1,0,3,0.01
2013-10-5,66.5,56.0,50.2,52.5,49.5,47.1,94,80,53,30.40,30.17,1,0,3,0.00
2013-10-6,72.7,59.0,48.8,55.4,48.4,41.9,98,71,38,30.17,29.83,3,0,7,0.01
2013-10-7,58.8,53.3,50.0,51.8,48.8,46.2,96,85,66,29.95,29.84,5,2,13,0.14
2013-10-8,58.6,49.6,40.3,48.6,44.1,39.0,96,82,56,30.13,29.94,3,1,7,0.06
2013-10-9,57.4,47.8,38.1,44.7,41.8,37.3,98,81,57,30.17,29.98,2,0,5,0.00
2013-10-10,55.0,47.8,42.4,48.6,44.4,41.3,97,88,75,30.10,29.95,2,0,5,0.00
2013-10-11,53.4,47.2,39.1,46.8,44.0,38.6,98,89,75,30.18,30.10,1,0,2,0.01
2013-10-12,58.5,48.6,42.3,49.5,45.2,41.5,99,89,67,30.25,30.11,3,0,5,0.04
2013-10-13,58.3,46.8,37.8,47.4,42.4,37.3,99,86,58,30.40,30.25,2,0,4,0.01
2013-10-14,59.9,47.0,37.8,49.1,43.4,36.8,98,88,66,30.47,30.40,2,0,4,0.01
2013-10-15,59.0,48.5,40.5,50.4,45.2,39.7,99,89,68,30.42,30.21,2,0,4,0.01
2013-10-16,61.9,48.6,39.5,52.1,45.8,39.0,99,91,67,30.23,30.17,2,0,3,0.01
2013-10-17,59.8,47.7,39.6,51.4,46.1,39.1,99,94,74,30.31,30.23,2,0,4,0.01
2013-10-18,56.3,43.9,35.2,50.9,42.5,34.7,99,95,82,30.29,30.19,3,0,4,0.01
2013-10-19,47.2,43.0,37.6,46.7,42.6,37.1,99,98,98,30.24,30.19,1,0,3,0.01
2013-10-20,47.9,45.9,44.3,47.3,45.5,44.0,99,98,96,30.25,30.19,1,0,2,0.01
2013-10-21,50.0,46.5,44.4,48.8,46.0,44.1,99,98,95,30.22,30.14,1,0,3,0.02
2013-10-22,60.8,46.7,39.5,54.2,45.5,39.2,99,96,79,30.17,30.06,3,0,4,0.01
2013-10-23,67.4,50.6,38.5,55.5,47.5,38.1,100,90,61,30.09,30.01,1,0,2,0.02
2013-10-24,62.2,49.0,41.2,52.5,46.2,40.1,99,91,69,30.14,30.04,2,0,4,0.01
2013-10-25,50.3,46.5,44.0,48.4,45.8,43.5,99,97,92,30.36,30.14,1,0,2,0.01
2013-10-26,53.5,48.6,46.0,47.4,46.1,44.6,98,91,79,30.38,30.20,1,0,3,0.00
2013-10-27,59.8,49.7,44.2,49.4,45.3,35.0,99,86,54,30.20,29.94,3,0,6,0.29
2013-10-28,58.9,49.7,43.2,35.9,30.4,26.4,61,48,31,30.08,29.96,2,0,4,0.00
2013-10-29,55.3,44.9,36.1,37.3,32.1,26.3,83,62,43,30.06,29.98,2,0,5,0.00
2013-10-30,52.1,44.8,37.9,45.2,39.5,33.7,97,82,59,30.15,30.05,2,0,3,0.08
2013-10-31,49.4,47.2,45.1,48.8,46.7,44.3,99,98,97,30.28,30.10,1,0,4,0.43
2013-11-1,52.2,49.4,47.8,50.4,48.6,47.3,99,97,91,30.28,29.84,2,0,3,0.10
2013-11-2,48.0,43.4,38.6,47.5,42.8,38.1,98,98,95,29.87,29.42,5,1,10,1.54
2013-11-3,47.2,39.1,33.9,42.8,37.2,33.1,99,93,68,30.15,29.88,2,0,4,0.01
2013-11-4,45.2,38.1,30.7,37.7,34.7,30.2,99,88,70,30.23,30.12,2,0,6,0.01
2013-11-5,41.0,39.5,37.4,40.5,38.6,36.1,98,97,90,30.30,30.07,1,0,2,0.17
2013-11-6,48.2,43.3,39.1,44.4,41.4,38.6,99,93,83,30.36,30.03,2,0,4,0.03
2013-11-7,47.3,44.1,41.6,45.8,43.3,40.5,99,97,89,30.05,29.70,2,1,8,0.89
2013-11-8,50.8,45.2,41.5,46.4,43.3,40.4,99,93,72,30.19,29.95,2,0,5,0.22
2013-11-9,48.1,43.4,40.0,43.9,41.8,39.2,98,94,83,30.18,30.13,2,0,3,0.00
2013-11-10,49.9,44.2,39.2,44.5,41.5,38.7,98,91,74,30.22,30.16,1,0,4,0.02
2013-11-11,53.7,48.9,45.9,41.2,38.9,37.0,75,68,60,30.21,30.03,3,1,8,0.00
2013-11-12,56.1,49.7,44.6,52.0,46.4,39.4,97,89,69,30.33,30.02,2,0,5,0.17
2013-11-13,53.7,48.9,44.6,49.7,46.9,43.5,98,93,81,30.43,30.33,3,0,5,0.05
2013-11-14,47.9,44.0,40.7,46.0,42.8,39.3,99,95,87,30.32,30.06,2,0,3,0.04
2013-11-15,44.0,41.1,38.6,43.5,40.1,37.8,98,96,92,30.06,29.25,6,1,14,1.10
2013-11-16,43.4,38.5,32.3,39.8,36.9,31.8,99,94,79,29.75,29.31,4,0,7,0.02
2013-11-17,47.9,42.1,35.7,43.8,40.0,34.7,98,92,83,29.90,29.75,4,1,6,0.06
2013-11-18,43.9,42.9,40.7,43.4,42.2,40.2,98,97,95,29.90,29.56,1,0,3,1.27
2013-11-19,42.2,37.7,28.4,41.0,30.1,17.0,99,76,41,30.11,29.57,6,2,9,0.15
2013-11-20,38.0,30.1,25.3,24.7,22.7,20.7,89,74,55,30.57,30.12,2,0,6,0.00
2013-11-21,37.8,29.7,24.8,26.4,23.6,21.5,89,78,61,30.73,30.57,2,0,3,0.00
2013-11-22,42.0,32.9,26.4,30.9,27.1,23.7,90,80,59,30.73,30.51,2,0,3,0.00
2013-11-23,45.3,36.6,30.3,35.4,31.8,27.6,92,83,67,30.51,30.25,1,0,2,0.00
2013-11-24,48.2,39.7,31.1,40.0,35.6,29.7,97,86,70,30.30,30.22,2,0,3,0.00
2013-11-25,52.4,41.9,35.6,40.4,36.7,33.3,92,82,62,30.34,30.29,1,0,2,0.00
2013-11-26,48.7,42.3,33.6,38.3,36.1,32.3,95,79,62,30.30,30.14,2,0,3,0.00
2013-11-27,53.3,45.4,38.7,41.7,37.1,33.6,87,73,62,30.14,30.00,2,0,3,0.00
2013-11-28,51.8,43.3,36.0,42.9,39.1,33.6,94,85,70,30.21,30.06,2,0,3,0.01
2013-11-29,44.7,43.8,42.5,43.9,42.5,41.1,98,95,92,30.33,30.21,2,0,5,0.17
2013-11-30,45.8,43.6,42.2,45.5,43.1,41.7,99,98,97,30.34,30.07,1,0,2,1.08
2013-12-1,49.6,45.9,40.7,47.5,44.0,34.1,99,93,76,30.07,29.71,6,2,10,0.59
2013-12-2,40.5,33.7,28.2,35.5,29.7,17.2,97,86,62,30.18,29.76,5,1,7,0.05
2013-12-3,35.0,30.1,27.0,18.9,16.2,14.2,64,56,49,30.39,30.18,4,2,12,0.00
2013-12-4,33.8,28.2,23.3,14.6,12.2,9.3,62,51,39,30.42,30.37,4,1,7,0.00
2013-12-5,30.9,25.5,21.6,16.6,13.3,6.7,72,60,47,30.38,30.26,3,1,8,0.00
2013-12-6,26.4,21.0,17.9,6.7,1.2,-2.5,49,42,32,30.40,30.28,4,2,15,0.00
2013-12-7,26.4,18.6,13.3,5.4,0.7,-2.5,69,46,34,30.47,30.38,4,1,5,0.00
2013-12-8,28.3,21.5,13.1,14.4,11.0,5.0,74,64,48,30.61,30.46,1,0,3,0.00
2013-12-9,27.4,25.6,21.5,25.6,21.4,14.4,93,84,71,30.61,30.51,1,0,2,0.00
2013-12-10,31.3,29.6,27.4,30.0,28.2,25.6,96,94,91,30.53,30.47,1,0,3,0.00
2013-12-11,36.6,32.6,30.7,31.6,29.6,28.3,93,89,80,30.47,30.20,1,0,3,0.03
2013-12-12,37.3,33.5,29.3,36.5,31.7,27.5,98,93,87,30.19,30.05,1,0,2,0.28
2013-12-13,41.1,38.7,36.1,40.8,38.3,35.6,99,99,98,30.46,30.16,1,0,2,0.28
2013-12-14,45.9,41.8,38.5,44.0,41.1,38.2,99,98,92,30.47,30.33,4,0,6,0.02
2013-12-15,48.0,44.3,38.5,46.1,43.5,37.7,98,97,93,30.45,30.30,3,1,10,0.10
2013-12-16,45.5,39.2,34.4,43.3,38.4,33.9,99,97,91,30.52,30.30,1,0,2,0.01
2013-12-17,40.6,37.0,33.5,39.5,36.5,33.0,99,98,95,30.30,30.09,3,0,5,0.05
2013-12-18,41.0,37.0,29.3,39.9,32.0,21.6,97,82,65,30.28,30.05,5,1,11,0.01
2013-12-19,33.6,29.9,26.3,27.0,21.9,19.0,93,72,57,30.40,30.24,1,0,5,0.00
2013-12-20,32.9,30.3,28.4,31.9,29.3,26.9,98,96,93,30.23,29.76,1,0,2,0.00
2013-12-21,35.8,33.1,31.4,35.5,32.6,30.9,99,98,97,30.21,29.91,0,0,1,0.46
2013-12-22,37.7,35.5,33.4,37.4,35.2,33.1,99,99,99,30.33,30.20,0,0,1,1.20
2013-12-23,48.8,43.1,37.1,46.7,40.8,36.6,100,92,75,30.51,30.09,8,2,11,0.54
2013-12-24,43.8,38.8,35.0,40.6,37.4,34.2,99,95,83,30.63,30.51,2,0,3,0.00
2013-12-25,39.0,35.4,30.3,36.3,34.2,29.8,98,95,88,30.58,30.44,0,0,1,0.02
2013-12-26,46.6,39.7,35.6,44.0,38.7,35.1,99,96,87,30.44,30.24,0,0,1,0.17
2013-12-27,45.4,40.0,35.0,44.9,39.1,34.5,99,97,91,30.36,30.05,4,1,7,0.48
2013-12-28,42.9,39.9,35.6,41.8,39.3,34.8,99,98,94,30.55,30.36,1,0,1,0.00
2013-12-29,41.9,39.2,37.4,40.4,38.4,37.1,99,97,90,30.51,30.35,1,0,2,0.02
2013-12-30,44.6,40.8,38.7,42.2,39.6,37.7,98,95,90,30.35,30.13,1,0,2,0.01
2013-12-31,43.1,41.7,40.2,42.8,41.3,39.7,99,99,97,30.42,30.20,2,0,8,0.09
2014-1-1,44.4,40.6,35.4,43.2,40.0,35.1,100,98,91,30.45,30.29,1,0,1,0.01
2014-1-2,44.2,41.7,39.6,43.7,41.1,36.4,99,98,86,30.29,29.85,7,1,13,1.47